Theta_e
313 314 313 317 319 316 319 323 325 326 326 326 324 321 322 328 329 328 327 326 327 328 327 324 322 321 320 320 320 320 320 320 320 319 319 320 321 321 322 323 323 324 322 321 320 321 323 323 324 325 326 325 325 326 321 316 316 318 328 330 325 327 326 323 324 318 318 321 316 313 318 321 320 317 317 318 319 321 322 324 327 326 324 325 323 321 322 325
311 313 312 314 319 318 317 320 323 326 326 326 325 323 322 324 327 328 326 326 327 326 325 322 320 320 320 320 320 320 320 320 320 319 319 320 321 321 321 322 322 323 323 322 322 322 324 325 326 326 327 326 325 325 320 315 315 320 324 323 327 333 325 319 319 314 315 317 315 315 316 318 319 317 317 320 321 323 327 326 326 327 325 326 324 322 323 325
311 312 312 311 317 320 318 317 320 324 326 326 325 325 324 324 326 328 327 326 327 325 323 320 319 320 320 321 320 320 320 320 321 320 319 320 321 321 321 322 322 323 323 323 323 323 324 325 327 329 328 326 325 324 319 314 315 317 316 321 330 326 317 315 315 314 315 315 314 316 315 316 317 317 318 319 322 324 327 326 324 326 326 327 326 324 325 325
312 312 312 311 313 319 320 318 318 321 326 326 325 326 325 326 327 328 327 325 325 323 321 320 319 320 320 320 320 320 320 320 321 319 319 319 320 321 322 323 323 323 323 324 324 324 324 325 327 328 327 325 325 323 317 312 314 314 316 323 322 314 314 316 314 314 314 314 314 315 315 315 315 317 318 318 323 325 324 322 322 323 323 326 326 325 327 327
312 312 312 311 310 315 320 320 318 319 325 327 326 326 325 327 329 328 327 325 324 322 320 319 320 320 319 319 319 319 319 320 320 318 319 319 318 320 322 324 325 325 325 325 325 325 325 325 327 326 326 325 324 324 318 311 312 313 315 318 313 311 313 313 312 313 312 313 314 313 315 317 315 317 318 318 322 324 321 320 319 318 319 323 324 324 327 328
312 312 313 312 310 312 318 321 319 318 323 327 326 326 323 324 326 327 327 325 323 322 320 319 320 319 318 318 318 318 318 320 320 318 319 319 319 320 322 324 325 326 325 326 326 325 326 325 326 326 326 325 324 325 319 311 311 313 314 311 310 310 311 312 311 311 312 312 313 313 315 316 315 316 317 318 320 319 318 319 318 318 319 320 322 323 326 327
311 312 312 313 311 310 314 320 321 318 319 325 327 326 324 321 321 325 326 324 323 322 320 319 319 318 318 317 317 317 317 319 320 319 319 318 319 320 321 323 323 324 324 325 325 325 327 325 326 325 325 325 324 323 319 314 312 312 314 310 310 310 309 311 312 312 312 312 313 314 315 315 315 317 316 317 319 318 318 318 318 318 318 320 322 322 323 324
310 311 312 313 312 310 312 316 321 320 318 322 326 326 325 322 323 326 326 324 323 321 320 319 318 318 317 318 317 317 316 318 319 320 320 317 318 318 320 320 320 321 321 322 322 324 326 325 327 325 325 326 324 324 319 318 317 312 312 310 310 311 311 312 312 313 313 312 313 313 314 314 315 315 314 316 319 318 318 317 318 318 318 320 321 321 323 323
309 310 311 312 313 312 310 312 319 321 319 323 327 325 325 324 325 327 325 323 322 321 320 318 318 318 318 318 317 316 316 317 318 320 321 319 317 316 317 318 320 321 320 321 321 321 324 325 327 325 326 324 323 324 319 323 326 313 310 311 310 311 311 312 312 312 313 313 313 313 314 314 314 314 314 316 317 317 318 317 317 318 318 319 320 321 322 323
309 310 310 311 313 313 311 311 317 321 320 323 326 325 325 325 326 327 324 323 321 320 320 318 318 319 318 317 316 316 317 317 318 320 321 319 317 316 316 317 319 321 322 324 323 323 323 324 326 325 326 323 322 322 319 325 327 314 311 314 314 313 312 312 312 312 312 312 313 314 314 313 312 314 317 318 316 317 318 317 317 318 318 318 319 321 321 321
308 309 310 310 312 313 312 310 314 321 320 320 325 325 325 325 325 326 324 322 320 320 320 318 319 319 317 316 315 316 318 318 317 319 321 320 318 317 316 316 317 319 321 323 324 324 324 324 325 325 326 324 322 320 318 321 320 314 315 319 318 316 315 313 312 313 313 313 313 313 313 312 312 314 316 317 316 317 317 317 317 317 319 319 319 320 321 321
308 309 310 310 311 312 313 310 312 319 320 319 324 326 325 325 324 324 323 320 320 320 319 319 319 318 316 316 316 316 319 318 317 319 320 320 319 319 318 317 317 317 318 319 321 323 325 326 325 326 326 324 322 321 320 319 317 315 315 322 322 316 317 315 311 312 312 313 313 313 314 314 314 314 316 315 315 316 316 317 317 316 318 319 320 320 320 321
308 308 309 309 310 311 312 311 310 316 321 320 322 325 325 325 324 323 323 320 320 320 319 319 318 316 316 317 316 316 319 318 317 319 319 320 320 320 320 321 321 320 320 319 320 324 326 326 325 325 325 323 322 322 322 316 315 316 313 318 322 319 322 316 310 312 311 313 313 313 317 320 318 314 315 315 315 315 315 316 316 316 317 318 320 320 320 321
309 308 308 309 309 310 311 312 310 313 320 321 321 325 325 325 324 324 323 320 320 320 319 318 317 316 316 317 316 316 318 319 318 318 318 320 321 322 323 324 324 324 325 324 324 326 326 326 326 324 323 322 321 319 321 318 317 319 315 316 317 320 326 317 309 311 312 313 313 313 317 321 319 314 314 315 314 315 315 315 315 316 316 317 319 319 320 320
308 308 308 309 309 309 310 312 311 311 317 321 322 325 325 324 324 324 323 320 320 320 318 317 317 317 317 318 317 316 318 320 320 318 318 319 321 322 323 324 324 325 326 325 325 326 324 324 325 322 319 319 319 319 324 325 322 320 322 322 317 316 321 317 310 310 313 313 311 313 316 318 317 314 314 314 314 314 314 315 315 315 316 316 318 318 319 319
308 308 308 309 309 309 310 311 312 310 315 321 323 324 325 324 323 324 323 320 320 319 318 318 318 318 318 318 318 317 318 321 320 319 319 319 321 322 323 323 323 324 325 323 324 324 323 322 321 318 317 317 319 322 325 326 323 320 322 323 318 314 315 315 312 309 311 313 311 312 316 319 316 311 312 313 313 314 314 315 315 315 316 316 317 317 318 318
307 308 308 308 309 309 309 310 312 311 314 320 323 324 325 324 323 324 323 320 320 318 317 319 318 319 319 318 319 318 318 320 321 320 320 321 321 321 322 322 322 323 322 321 321 321 320 319 318 317 317 318 319 321 325 326 325 321 318 319 317 314 313 314 315 310 308 312 313 313 313 317 316 311 311 312 311 312 313 314 315 316 316 316 316 317 317 317
306 307 307 308 308 309 309 309 311 311 313 320 324 324 324 325 324 323 322 320 319 318 318 319 319 320 320 318 319 320 318 320 321 321 321 321 321 321 321 322 321 320 317 316 317 317 317 315 316 318 318 319 319 320 326 327 326 323 317 317 317 314 312 313 314 311 310 312 313 314 313 314 315 312 311 312 311 311 312 314 315 316 316 317 316 316 317 317
307 307 307 308 308 309 309 308 311 311 312 320 324 323 324 324 323 322 320 319 319 320 321 320 320 321 321 319 319 320 319 320 321 321 322 321 321 321 321 320 318 317 314 314 314 314 315 314 316 319 319 319 319 321 325 324 324 322 317 317 317 315 314 312 312 311 310 312 313 313 314 313 314 313 312 312 311 311 311 313 314 315 316 317 316 316 316 316
308 308 308 308 308 308 309 308 310 311 312 319 324 324 325 324 323 322 320 320 321 321 321 321 321 320 320 319 319 320 320 321 322 322 322 321 322 321 318 316 315 314 313 313 314 312 314 316 317 319 319 319 319 320 321 321 321 319 315 314 314 314 313 311 313 310 308 312 314 313 313 313 313 314 312 310 310 310 310 311 313 314 315 316 316 316 315 315
308 308 308 309 309 308 309 308 309 311 312 318 324 325 324 324 324 323 321 321 321 320 320 320 321 319 319 319 319 320 321 321 321 322 322 322 322 319 315 314 313 313 313 313 313 312 314 317 318 319 319 317 318 318 317 316 317 317 315 313 313 313 312 311 311 310 309 311 315 313 312 313 312 312 311 309 309 311 310 311 312 313 314 314 315 315 315 315
308 309 308 309 310 309 309 308 308 311 311 315 323 325 324 324 324 322 322 322 321 320 321 321 321 320 319 319 320 320 320 319 319 321 322 321 320 317 313 313 314 314 314 312 313 313 314 317 318 317 315 315 318 319 316 314 314 317 317 315 314 314 313 312 311 311 310 311 316 315 312 312 312 311 310 307 309 311 311 311 312 313 313 313 314 315 314 315
310 309 309 309 310 309 308 307 308 311 312 315 322 325 324 324 323 322 322 322 320 319 320 321 320 319 319 319 320 320 320 318 317 319 321 319 317 315 313 313 314 314 314 313 314 315 315 317 316 313 313 316 317 318 317 315 314 316 317 316 315 313 313 313 312 311 311 311 314 313 311 312 311 311 311 309 308 310 311 312 312 312 313 313 314 314 314 314
312 310 310 309 309 309 308 307 308 311 312 315 322 323 321 324 323 321 321 320 319 318 319 320 319 319 319 319 320 319 319 318 316 317 318 317 315 314 314 313 314 314 314 314 315 316 317 315 313 312 315 317 317 317 317 316 315 315 315 316 315 314 312 312 311 311 312 312 311 312 315 315 314 314 313 311 309 308 309 310 311 312 313 313 313 313 314 314
313 311 310 310 309 309 308 309 310 311 311 315 323 322 319 323 322 320 320 319 319 317 317 318 318 319 319 319 320 318 318 317 316 316 317 317 315 313 313 314 315 314 314 315 315 316 316 313 313 315 316 316 316 316 317 317 318 318 316 315 314 312 310 312 314 313 315 317 312 312 317 320 321 320 316 314 312 310 309 308 309 312 313 313 313 313 314 314
314 312 311 310 309 307 309 312 311 311 312 315 321 322 320 322 321 320 321 320 320 316 315 317 318 319 319 319 319 318 318 316 315 316 315 315 315 314 314 313 314 315 314 314 315 315 314 312 313 316 315 316 317 316 316 317 319 320 317 313 313 311 310 314 316 314 317 318 313 311 315 319 321 319 317 316 315 314 311 307 307 310 311 312 313 314 315 315
315 313 311 310 309 308 311 313 311 311 315 316 320 322 321 322 321 320 320 320 320 317 315 316 317 318 318 319 318 319 320 317 314 314 313 314 315 315 315 313 313 314 311 313 317 316 313 313 314 315 316 316 316 316 316 315 318 320 316 313 313 311 311 315 315 314 316 316 314 312 312 314 315 314 316 316 314 315 313 310 308 308 310 312 313 316 315 315
316 314 312 311 309 308 309 311 311 313 315 315 319 323 322 322 321 320 320 322 320 317 316 315 315 316 317 318 318 317 317 316 315 313 312 314 314 314 314 313 314 314 311 315 320 315 312 315 316 315 317 315 316 317 316 315 317 317 313 314 315 314 315 318 316 316 316 313 315 314 311 313 315 317 319 315 313 315 315 315 311 308 311 313 314 317 316 316
316 314 312 310 309 307 306 309 312 313 313 316 320 321 321 322 320 319 321 322 318 315 316 315 314 315 315 315 314 313 314 315 315 313 311 313 313 313 314 312 312 312 311 314 318 314 309 312 314 314 316 316 317 319 315 315 316 314 315 317 317 319 319 318 318 316 315 314 316 316 313 313 317 322 319 314 313 314 315 317 312 308 311 314 314 316 317 316
316 313 311 310 310 309 308 311 313 310 313 319 320 319 320 320 320 322 323 321 317 314 315 315 314 314 314 314 312 312 313 313 312 312 311 311 311 310 311 312 311 312 313 312 314 313 308 309 311 312 314 314 315 316 312 314 314 311 316 317 316 321 322 321 321 316 315 318 316 314 314 313 315 319 317 315 316 315 315 316 313 309 311 314 314 315 316 316
315 313 311 311 310 309 311 314 314 312 315 320 320 318 320 319 320 324 323 318 316 315 313 314 314 314 315 315 313 313 312 311 311 312 312 311 310 309 310 312 312 313 313 312 313 311 307 310 311 310 311 311 312 313 310 312 312 312 316 315 314 319 320 321 323 318 317 319 313 312 314 312 313 316 316 314 314 314 313 315 315 312 311 314 314 314 314 314
314 313 311 310 309 308 311 314 314 314 317 320 319 317 320 320 319 322 320 317 317 315 313 314 314 314 316 315 314 313 312 312 312 312 313 312 309 308 311 313 312 314 314 313 314 311 311 313 310 308 309 310 313 314 311 312 312 313 315 315 315 318 318 319 320 318 318 317 311 310 313 312 313 315 314 313 312 312 310 309 312 310 310 313 314 313 313 313
313 312 311 309 309 309 311 313 314 316 317 318 318 318 320 321 320 320 317 316 317 314 313 315 314 315 316 315 313 312 312 313 313 313 314 312 310 308 311 313 312 315 316 313 313 312 313 313 310 309 309 309 312 314 312 312 313 313 313 314 317 318 318 319 319 318 320 318 311 308 310 314 316 315 315 313 312 312 309 307 309 309 309 312 312 312 313 312
313 312 311 310 309 310 311 314 316 318 318 318 319 319 320 321 319 317 314 314 315 314 314 315 314 315 316 314 312 312 313 313 312 313 313 312 311 309 311 311 311 315 315 313 313 313 314 314 312 312 311 310 311 312 312 313 312 312 312 314 317 318 320 321 320 319 321 320 312 308 312 318 319 316 313 309 308 309 310 310 310 310 310 312 311 312 313 313
313 311 311 311 311 311 313 315 317 317 318 318 318 319 322 321 317 315 314 312 313 313 314 314 315 316 315 312 311 312 313 312 312 313 313 312 312 310 310 310 309 313 314 313 313 312 312 314 312 310 308 309 311 310 311 313 313 313 312 313 315 317 321 320 318 316 316 318 314 310 315 318 317 315 310 307 307 308 308 310 310 311 311 310 310 312 312 313
312 312 312 312 313 313 314 316 317 317 317 317 319 319 321 319 315 315 314 312 312 313 314 315 315 316 314 311 311 311 311 312 312 313 312 312 312 311 311 310 308 310 313 314 314 312 313 313 311 309 308 308 309 309 309 312 314 314 312 312 313 315 318 317 315 312 311 316 317 313 314 316 314 314 314 313 312 310 309 308 307 310 311 309 310 312 312 313
313 313 313 313 313 314 314 316 317 318 317 317 319 319 319 317 315 314 314 313 313 313 315 316 316 316 315 312 312 312 312 312 312 313 313 312 312 311 311 310 308 309 311 312 313 313 314 313 310 311 311 307 307 308 307 309 313 314 313 314 312 314 317 316 315 314 312 315 318 314 313 314 314 316 318 317 315 315 314 311 307 308 309 309 311 312 312 313
313 314 315 314 314 314 314 316 317 317 317 318 319 318 317 316 314 313 314 313 313 314 316 317 316 316 315 314 313 311 313 314 313 314 314 313 315 313 310 310 308 308 309 310 313 313 315 316 310 310 313 309 307 310 310 308 309 310 313 314 314 315 317 315 315 317 316 315 318 317 313 311 313 316 318 315 313 315 314 312 310 309 307 308 310 312 312 312
313 315 316 315 314 313 315 316 317 317 317 318 319 317 315 314 313 313 313 313 313 315 316 317 317 316 315 315 314 311 313 315 313 314 314 313 315 313 310 310 309 307 306 309 314 314 316 319 313 309 310 311 310 311 312 311 309 308 310 312 313 314 315 316 316 318 318 316 317 320 318 314 313 315 316 313 312 313 312 312 313 309 307 310 310 311 312 311
313 315 317 316 314 314 315 316 317 317 317 318 319 316 314 313 312 312 312 313 314 315 316 316 316 316 315 315 314 312 313 314 312 314 315 314 314 311 310 310 309 307 307 309 313 312 313 317 315 309 308 311 313 313 314 314 311 311 312 313 312 311 314 316 315 316 318 317 316 317 317 318 317 314 313 313 313 313 313 313 312 307 308 311 311 310 311 311
314 315 316 315 315 315 315 316 317 316 315 317 318 314 313 312 312 312 312 312 313 313 315 316 316 316 315 315 314 312 313 313 312 314 315 313 313 312 311 309 307 307 309 310 312 313 312 315 315 313 311 313 317 316 314 314 313 313 314 313 312 312 314 315 314 315 315 316 318 316 313 317 319 314 312 313 314 312 310 309 308 308 310 311 311 310 311 311
315 315 314 314 315 316 315 316 317 315 314 315 314 311 311 311 311 312 312 312 313 313 313 314 315 315 315 315 314 313 313 313 313 314 313 312 314 313 310 308 307 307 309 311 312 312 313 316 318 317 315 315 314 309 306 308 312 313 313 313 313 313 313 314 318 319 315 314 317 315 313 314 315 318 317 313 310 307 306 305 306 309 311 310 310 311 311 311
311 314 314 314 316 315 316 316 315 314 313 313 311 310 310 311 311 312 312 312 313 313 314 314 314 314 314 315 314 313 313 312 313 313 312 312 313 311 308 307 308 308 310 311 311 310 311 316 319 317 316 317 314 308 304 306 311 313 312 313 313 313 313 316 322 322 317 315 314 312 313 312 312 319 314 305 303 303 303 305 307 309 311 309 309 311 311 311
310 313 314 314 316 315 316 316 315 313 312 311 310 310 310 310 311 312 312 313 313 313 314 314 314 314 314 314 313 313 313 313 313 312 311 312 311 307 307 308 309 310 309 310 312 311 311 314 316 316 317 317 315 311 310 309 311 314 315 315 314 314 314 315 317 315 313 317 316 314 315 312 311 317 312 305 307 305 303 307 308 308 309 310 310 311 312 312
311 314 313 314 315 315 316 315 313 312 311 310 309 309 309 309 310 311 312 313 312 313 314 313 313 313 313 314 313 312 313 314 313 311 311 312 309 306 306 308 309 310 310 310 310 310 313 315 315 315 316 316 315 314 314 313 312 315 318 317 315 314 314 313 314 313 312 315 316 314 314 313 313 317 316 317 318 311 306 307 308 308 309 310 311 312 312 312
312 314 313 314 314 316 316 313 312 311 311 311 310 309 310 310 310 311 312 312 310 312 315 314 313 313 312 314 313 313 313 313 312 311 311 312 310 306 305 308 310 309 309 310 309 311 318 316 312 314 314 313 314 315 316 316 313 314 316 315 313 312 312 313 312 313 314 315 314 313 313 315 316 317 318 319 319 315 311 307 306 309 309 310 311 312 312 312
312 313 313 314 314 315 315 313 312 312 312 312 311 310 310 311 311 312 312 311 310 311 313 312 312 313 313 313 314 313 313 312 312 312 310 311 311 307 306 307 309 309 309 310 309 313 318 315 311 314 314 313 316 317 316 315 314 313 314 314 313 313 313 314 313 313 315 315 314 314 313 314 315 315 316 315 314 315 313 308 307 309 309 309 311 311 312 312
311 311 311 312 313 315 315 312 312 313 314 314 312 311 311 311 312 312 312 311 310 311 312 312 313 314 313 313 314 314 313 312 311 312 311 311 311 308 307 307 307 308 309 310 309 311 315 313 312 313 313 315 319 318 315 315 314 314 315 314 314 313 313 313 313 313 314 314 313 315 317 315 313 314 315 314 313 312 311 310 310 310 310 311 311 310 312 312
309 310 309 309 311 314 314 312 312 313 314 314 311 310 311 311 312 312 312 311 310 311 313 313 313 313 313 313 314 314 313 313 312 311 310 310 309 308 308 308 307 306 308 310 310 309 312 313 312 311 310 312 314 313 313 314 314 313 315 314 313 313 313 312 312 312 313 313 312 314 316 314 313 315 314 312 310 309 309 310 310 311 312 312 310 310 311 311
309 309 309 308 310 314 314 312 312 313 313 312 311 310 311 311 312 312 312 311 311 312 313 313 313 313 313 314 314 314 314 314 314 312 309 309 309 308 309 310 309 308 308 310 309 308 310 313 311 311 311 310 312 313 312 312 313 314 315 314 312 312 312 311 311 312 312 312 311 312 313 311 311 312 311 309 309 309 309 309 310 311 312 311 310 310 310 311
310 310 310 309 309 313 314 312 313 314 313 312 311 310 310 311 312 312 311 310 310 312 313 313 313 313 312 314 315 314 313 313 313 310 308 309 309 309 309 309 309 310 310 311 311 310 312 312 311 313 314 311 311 314 314 311 311 313 315 314 312 311 311 311 311 312 312 312 312 312 311 312 312 310 307 308 309 308 308 309 310 311 312 311 310 310 311 311
310 310 310 310 310 313 314 314 314 314 313 313 311 310 311 311 311 312 311 309 309 310 311 312 313 312 312 313 314 313 312 311 310 308 308 309 309 308 309 308 307 310 311 311 313 314 314 314 313 314 315 311 309 312 314 313 311 313 313 313 311 310 310 310 311 312 311 311 312 312 311 314 316 312 309 311 310 308 308 309 310 311 311 311 310 311 312 312
Wind_Speed
31 30 30 31 35 39 38 33 33 34 35 35 36 38 40 39 37 34 32 32 33 33 32 30 28 27 25 24 23 23 23 23 24 26 28 27 27 27 25 27 27 25 23 22 22 19 16 16 18 19 20 16 10 8 7 10 4 2 2 3 1 3 3 5 5 6 3 1 3 9 16 13 7 10 11 8 9 8 12 16 11 18 16 8 11 7 16 28
32 30 30 31 31 36 41 37 33 34 36 36 36 38 41 40 36 34 32 33 35 34 33 31 30 28 26 25 24 23 22 22 22 24 25 23 24 27 26 25 25 26 25 23 22 20 18 17 18 18 15 9 5 5 4 9 5 2 2 2 3 5 3 4 4 5 2 3 2 8 13 13 10 12 14 7 7 9 10 14 11 15 18 12 11 10 18 28
31 30 29 32 32 31 37 40 35 33 36 36 37 39 40 40 38 35 32 35 37 35 34 33 32 31 28 27 25 23 22 20 21 24 23 23 22 23 24 23 23 24 24 22 21 21 20 18 17 17 13 7 3 4 2 7 4 1 2 1 4 4 4 4 3 4 5 7 4 6 10 11 11 13 15 8 6 8 9 14 14 16 21 17 13 13 21 29
30 31 29 31 34 31 32 40 38 33 35 37 38 39 40 40 39 35 33 37 39 36 35 35 34 33 30 29 26 24 22 15 18 25 23 24 24 22 21 20 19 19 20 19 17 17 17 15 15 15 12 7 3 3 1 5 3 1 2 3 4 1 3 5 7 7 7 8 7 6 7 9 11 14 15 11 6 5 14 23 22 20 22 20 16 16 23 29
30 30 30 30 34 33 31 37 40 35 34 37 38 40 41 40 39 36 34 38 40 38 37 37 36 34 32 29 26 25 20 7 11 23 24 24 25 23 21 18 17 16 15 16 14 13 12 13 14 15 10 5 5 3 2 3 2 2 3 2 0 2 2 8 11 11 11 8 7 5 5 8 11 14 18 17 9 9 19 27 26 23 21 21 20 19 25 29
30 30 31 30 32 35 32 34 39 39 36 37 40 41 41 41 41 38 37 38 40 40 39 39 38 35 32 29 26 25 20 6 2 15 24 26 25 24 23 20 19 17 15 14 13 12 12 14 15 16 11 5 7 6 4 4 3 2 3 1 3 4 3 11 16 14 14 9 7 6 7 10 11 11 17 22 19 16 15 20 23 23 20 20 21 21 25 29
31 31 31 30 32 35 34 33 35 39 38 36 40 42 41 43 43 41 40 39 40 41 40 41 39 36 32 29 25 23 23 14 1 4 20 28 27 25 24 22 21 19 18 15 15 14 13 16 16 17 12 4 7 9 9 9 4 2 2 3 6 7 7 13 18 16 13 9 10 9 8 11 14 9 10 22 30 22 12 11 16 21 20 20 22 22 24 26
31 32 32 31 31 34 35 35 34 36 38 36 39 42 40 43 45 44 43 40 42 42 41 41 39 36 33 29 26 21 24 25 10 1 15 29 30 28 26 23 22 20 20 18 18 17 14 16 17 15 9 2 8 10 11 10 5 3 2 4 8 10 12 17 17 15 12 10 10 10 10 10 15 9 6 22 31 23 16 10 9 19 22 22 24 24 24 25
32 32 33 31 32 33 34 36 35 34 38 38 39 42 41 44 47 47 45 43 44 44 43 41 38 37 32 29 26 17 23 32 20 4 9 27 30 30 29 25 23 20 19 19 19 20 18 18 19 16 9 5 9 9 10 8 4 5 3 5 10 11 15 18 15 12 10 8 6 9 9 8 12 8 9 23 25 21 21 13 9 17 23 24 25 25 25 26
32 32 33 33 32 34 34 35 36 35 38 38 38 41 41 44 49 50 48 45 46 45 44 41 39 37 31 30 23 12 21 32 24 10 8 21 27 28 30 26 23 21 19 18 17 20 21 21 21 18 9 7 8 7 9 7 3 5 2 8 11 14 16 15 13 11 8 7 7 9 6 4 8 5 9 18 16 18 22 18 14 16 23 25 25 25 25 26
33 33 33 34 33 34 34 35 38 37 38 39 38 42 43 45 49 51 49 48 48 47 46 43 39 36 32 30 24 14 20 28 27 17 10 15 22 24 27 26 25 24 21 19 17 18 19 19 22 18 7 6 8 6 8 7 4 3 6 8 11 17 17 12 10 10 6 5 8 9 3 2 4 4 13 15 8 13 20 22 20 18 22 24 24 25 26 27
34 34 33 35 35 35 34 35 39 38 39 42 41 45 46 46 48 49 49 49 49 48 47 44 39 35 32 29 29 25 20 25 29 21 12 13 17 18 20 21 22 23 23 22 19 18 18 17 21 19 8 8 10 4 8 10 5 1 3 3 7 12 11 10 9 6 3 2 5 6 2 3 3 9 20 17 10 12 16 21 22 20 21 24 25 26 27 28
34 34 34 35 36 37 35 36 40 40 40 42 41 45 47 46 48 48 49 50 49 48 46 44 39 34 30 25 29 32 20 21 30 24 15 14 15 16 16 17 17 18 20 22 22 20 19 16 19 20 11 10 10 4 4 7 6 1 3 1 3 6 6 6 4 4 5 3 5 7 3 6 6 18 22 14 13 14 15 20 22 21 22 24 26 27 28 29
35 36 36 36 38 38 36 36 40 42 41 39 38 42 45 46 49 48 49 51 49 47 44 40 37 34 31 23 26 33 21 16 27 27 21 18 18 20 19 17 16 16 17 18 19 19 17 14 18 19 11 9 10 6 4 3 3 2 1 0 1 1 5 3 1 3 3 4 8 8 3 6 7 17 19 12 14 15 17 21 23 24 24 25 27 28 29 30
38 38 38 38 39 39 39 37 39 42 42 39 39 42 45 46 46 46 48 51 50 46 41 38 37 34 26 20 22 31 24 15 22 26 24 21 21 25 23 21 18 16 16 15 16 17 16 16 17 15 9 8 10 7 3 3 2 2 2 1 1 3 5 6 3 7 6 3 7 8 3 6 8 14 14 14 16 16 19 22 23 25 25 26 28 29 30 30
40 41 41 40 40 41 40 40 39 42 42 41 41 41 44 46 44 46 49 52 50 44 41 38 41 35 19 13 18 26 25 18 20 23 24 22 22 27 27 24 19 15 14 13 14 16 16 16 14 10 8 7 7 5 3 1 1 1 1 3 1 2 2 5 4 8 9 3 4 6 3 3 6 8 7 13 20 20 20 22 24 26 27 27 28 29 31 31
43 43 44 44 43 42 42 42 40 43 43 41 40 37 41 49 49 48 50 51 47 44 43 40 45 35 13 11 17 25 30 23 23 25 24 24 23 27 29 25 20 16 15 14 14 16 17 15 10 6 5 4 3 4 3 2 3 2 1 2 2 3 3 2 4 4 7 5 3 5 4 6 7 6 4 6 13 18 21 24 25 26 27 28 28 29 31 33
47 47 47 47 47 45 44 44 42 43 44 40 39 36 38 48 53 51 49 48 44 42 39 37 40 25 8 18 24 28 36 28 25 27 26 26 24 26 28 25 22 20 18 15 13 15 15 11 6 3 2 2 3 5 5 4 4 4 3 3 3 4 4 4 4 2 4 4 4 5 5 9 11 12 12 10 7 14 21 23 21 22 26 28 29 31 32 33
50 50 50 49 50 49 47 46 45 45 45 41 38 37 38 45 52 53 52 48 41 31 21 29 36 14 5 25 31 30 36 31 27 27 28 30 27 26 25 22 24 24 20 12 8 13 12 7 3 3 3 4 6 7 7 5 6 8 6 5 5 5 5 4 4 3 1 2 4 6 6 9 12 13 16 15 10 12 18 19 19 21 24 27 30 32 32 33
51 53 53 51 53 53 49 49 49 47 48 44 42 43 41 41 33 30 47 54 47 30 17 36 47 16 1 21 31 30 33 30 29 30 29 31 30 28 25 23 22 18 13 8 6 11 12 6 3 5 6 7 9 7 5 5 7 8 6 5 5 3 3 3 3 4 1 2 4 5 5 9 12 12 13 12 10 11 15 18 22 25 26 28 30 33 33 34
54 56 57 55 54 56 53 51 51 50 50 50 53 50 42 43 25 18 41 46 47 35 16 37 51 19 4 24 35 36 35 26 28 33 29 30 32 26 23 23 16 7 6 8 8 8 9 6 5 6 7 8 8 5 5 6 6 6 6 4 2 2 3 4 3 5 2 2 4 2 3 9 11 12 12 7 7 12 18 19 23 27 29 30 30 32 34 35
61 62 63 61 56 57 57 54 54 53 52 53 58 54 44 51 46 42 46 32 35 34 17 38 49 21 13 28 35 40 37 23 23 32 31 33 32 22 20 18 10 5 5 9 7 5 5 5 5 7 8 9 7 6 6 6 7 5 5 4 2 1 2 4 4 6 3 2 4 2 2 8 10 12 14 11 10 15 21 21 23 26 27 29 31 34 36 36
66 68 69 66 60 59 59 58 56 54 55 55 58 57 51 50 48 54 50 24 22 26 21 37 39 25 24 28 34 39 34 23 24 33 35 36 30 23 23 15 8 8 7 8 7 6 4 4 8 11 11 11 7 7 6 4 5 4 4 5 3 0 1 2 2 5 4 1 2 2 3 6 8 9 11 14 18 21 25 23 24 25 25 28 30 32 36 36
64 70 71 69 66 62 61 60 56 56 58 56 56 59 59 49 42 51 39 13 8 16 22 33 31 29 31 31 38 35 26 24 28 36 40 37 29 23 20 14 10 9 7 10 9 7 2 2 12 13 9 11 8 8 8 4 4 3 3 5 4 1 1 2 3 6 4 3 2 1 4 5 6 8 10 10 11 17 23 23 23 27 28 29 29 29 32 34
58 68 72 72 69 65 63 58 57 60 59 58 56 58 62 49 42 54 34 8 3 10 16 28 27 28 31 31 35 29 20 18 23 37 43 38 33 24 15 13 11 7 7 9 6 5 2 3 13 11 7 10 9 8 9 8 5 3 3 5 6 4 2 4 6 6 5 4 4 2 3 5 4 6 9 6 4 9 15 17 22 29 29 30 31 30 30 31
55 66 72 74 70 67 62 56 61 62 57 59 54 55 66 51 42 54 31 4 5 6 10 23 22 25 31 28 31 28 17 10 18 37 41 34 35 29 17 9 6 5 8 7 3 2 1 3 8 7 7 9 8 8 8 9 6 2 5 7 7 4 2 5 5 4 2 4 4 1 3 6 5 5 7 5 5 9 10 10 18 27 28 29 33 34 33 31
55 66 73 74 72 70 64 57 62 61 57 60 51 54 69 54 45 49 22 2 7 8 10 17 17 25 32 31 36 25 8 13 23 31 36 30 30 29 18 8 5 5 8 6 2 2 3 6 5 5 7 7 7 7 6 9 6 2 5 10 9 5 2 2 3 3 2 4 4 1 3 4 5 7 5 2 5 10 9 8 13 22 27 29 33 36 37 34
59 68 74 75 73 74 70 63 62 62 64 62 49 54 66 57 51 40 12 3 7 9 10 11 14 28 33 34 35 17 13 28 21 20 33 29 23 22 12 8 10 9 10 9 5 3 5 10 10 9 8 5 5 5 7 10 5 2 4 8 8 6 4 2 4 1 2 3 5 3 1 3 6 6 4 2 5 10 11 9 10 18 27 31 34 36 38 38
64 71 75 75 72 73 74 66 63 67 68 60 48 53 62 61 49 23 3 4 5 6 11 14 16 24 27 24 18 14 23 25 11 18 31 22 19 16 8 11 14 11 10 7 4 3 2 10 15 12 7 6 5 6 9 10 4 2 5 7 5 4 4 3 3 2 2 3 7 4 2 3 6 5 2 2 5 8 9 8 9 16 25 29 33 36 37 40
69 74 76 75 72 75 72 61 61 69 67 59 51 55 61 55 32 10 7 6 4 4 12 15 14 21 25 15 6 12 17 11 14 26 23 14 17 14 12 17 16 9 6 2 3 2 2 6 12 7 4 7 6 7 11 12 8 6 6 6 5 3 4 3 2 3 2 5 6 3 4 3 5 5 5 5 5 7 7 7 9 14 22 26 29 33 35 38
72 75 77 76 76 77 69 56 58 65 62 58 57 59 55 33 9 7 11 6 5 6 11 12 12 19 23 15 8 12 10 8 19 25 14 10 13 13 15 14 8 6 3 2 2 2 5 4 5 3 6 9 7 4 6 10 10 8 4 4 4 1 3 3 2 3 2 7 3 1 4 4 6 6 3 6 6 4 6 7 8 11 20 27 27 26 26 26
74 75 76 77 78 76 71 63 60 60 57 61 67 56 34 12 3 6 8 7 7 7 10 13 14 16 19 16 11 11 9 9 17 19 14 11 7 9 11 7 7 6 3 6 3 1 2 1 2 2 7 12 8 3 2 4 6 5 3 5 5 1 1 2 2 1 4 6 1 1 3 3 8 7 6 9 8 8 10 12 14 15 19 25 24 20 18 17
74 75 76 77 76 74 74 67 63 62 60 66 68 42 15 7 7 4 4 5 6 6 12 17 19 20 21 16 11 10 9 10 15 15 13 11 7 6 3 4 9 6 3 7 5 3 1 4 2 2 3 10 11 6 4 4 6 8 5 6 6 4 3 5 4 2 5 5 2 2 2 4 7 4 8 12 11 14 15 16 21 23 23 26 26 24 22 22
73 75 76 76 74 73 71 63 61 64 64 65 50 24 12 9 5 6 6 4 6 10 12 15 19 20 16 12 11 11 7 6 12 13 10 10 9 7 5 7 10 4 5 7 4 6 5 2 5 3 3 9 9 7 7 6 7 9 5 4 5 4 4 5 4 3 4 4 2 1 1 4 3 2 7 10 12 17 17 19 22 24 27 29 29 30 29 28
71 74 75 72 71 69 65 60 60 65 67 53 24 12 15 8 3 8 7 4 8 11 11 14 19 16 9 8 10 9 4 5 11 10 10 11 10 11 9 9 11 7 7 7 3 4 5 2 4 1 4 10 10 8 7 8 5 5 3 3 4 5 4 3 3 4 1 1 2 2 4 4 3 6 8 6 10 14 16 19 21 24 27 25 26 29 29 29
71 73 72 68 68 66 64 61 59 66 65 38 10 9 12 5 5 8 7 9 12 14 16 15 14 12 8 7 7 5 3 7 12 8 7 10 9 11 10 7 11 9 8 8 3 3 5 2 3 2 3 7 10 10 10 10 6 2 4 6 3 3 5 3 1 1 3 2 3 2 5 5 3 8 9 5 7 9 10 13 15 21 23 21 24 27 26 25
72 71 66 64 66 65 64 62 61 68 59 27 9 10 5 2 7 10 11 17 20 21 20 13 9 9 10 9 8 10 8 8 12 10 8 8 7 11 12 9 14 14 10 7 2 2 6 1 3 2 4 3 5 9 8 6 6 5 6 6 2 1 2 3 1 2 1 4 4 1 5 5 2 6 6 6 7 8 8 8 10 15 17 18 23 25 25 24
73 68 60 60 67 66 64 63 63 64 45 18 12 10 3 3 7 10 15 19 22 22 16 10 8 8 11 13 12 15 16 12 13 11 10 9 6 11 16 10 10 15 12 7 4 1 5 4 3 1 3 2 3 6 5 1 2 4 5 6 4 2 2 2 2 3 3 4 4 3 4 4 6 6 4 6 7 7 9 9 8 11 13 14 18 20 21 21
69 55 42 56 70 66 64 65 64 53 26 13 16 9 2 5 7 15 25 24 19 18 14 11 11 9 12 15 14 17 16 13 16 12 9 10 5 9 19 10 6 14 14 8 5 1 3 5 1 3 2 3 3 3 6 3 1 3 2 3 2 1 2 3 3 3 2 3 3 3 4 4 6 6 4 7 9 9 11 10 7 10 15 17 20 21 21 20
57 31 22 55 72 63 67 66 54 35 12 11 16 7 5 7 7 20 34 32 19 12 12 13 14 13 13 13 12 13 10 9 15 11 6 9 3 4 15 12 8 14 15 10 6 3 2 4 3 1 1 2 2 3 7 7 3 3 4 4 3 2 1 1 2 2 3 3 3 2 4 6 4 4 9 11 10 11 11 6 4 12 18 20 20 19 19 20
47 17 15 58 70 64 70 51 26 16 6 9 13 7 9 10 10 18 28 31 19 6 9 15 14 13 15 14 12 12 9 9 14 10 3 8 6 2 11 15 13 12 11 9 6 4 2 3 5 3 1 3 3 3 4 7 7 6 6 6 7 6 3 2 3 1 2 3 3 2 6 9 4 4 6 8 8 10 8 3 6 16 19 18 17 16 17 18
33 10 19 59 70 68 60 24 6 10 6 8 10 7 12 13 13 18 21 23 15 4 7 13 10 8 11 13 13 13 10 8 14 11 3 8 8 3 10 22 24 18 12 8 6 5 4 5 5 2 3 5 3 2 1 2 3 4 3 5 6 6 5 5 5 3 0 3 2 3 5 7 4 6 6 8 8 10 10 8 12 17 17 15 15 16 17 18
16 10 31 61 71 71 48 11 6 11 4 9 13 11 14 13 14 18 17 17 10 4 8 10 9 10 10 10 12 14 11 8 10 8 4 6 6 5 18 31 30 20 11 7 7 6 4 4 4 1 3 3 3 3 2 2 2 2 2 2 4 5 5 5 5 3 2 4 2 1 6 5 1 2 5 8 9 9 10 11 14 16 15 14 15 17 19 20
14 20 40 59 71 67 35 7 9 10 5 11 13 12 13 10 15 19 17 15 11 8 11 11 11 12 10 10 14 17 14 8 6 4 4 5 5 12 29 38 32 19 10 11 12 9 5 3 4 4 3 4 4 3 3 2 1 2 2 3 4 4 5 3 2 3 3 7 7 4 9 5 1 4 5 6 6 7 9 10 12 14 12 13 15 19 22 24
16 18 33 51 67 60 27 9 11 9 10 15 11 13 13 9 16 25 23 16 10 9 10 9 11 11 9 10 11 12 12 7 5 5 3 4 4 9 27 39 34 21 14 18 20 14 7 4 5 6 5 5 5 5 6 3 2 2 3 7 8 8 10 7 3 4 9 8 10 10 10 2 3 5 6 6 6 7 7 6 7 10 9 12 16 18 20 23
13 8 16 31 47 46 26 17 16 9 12 17 11 11 14 11 13 23 25 12 3 6 6 4 11 12 10 13 12 10 10 5 7 8 6 8 5 4 21 37 33 24 20 26 29 17 4 2 7 9 10 11 8 6 5 8 8 7 6 9 9 8 9 7 5 8 7 4 8 14 11 4 5 6 7 7 6 7 7 5 5 7 8 11 14 16 18 22
11 6 9 13 20 23 17 13 13 9 13 18 12 10 16 15 11 14 17 8 4 10 6 4 12 14 14 19 15 13 13 5 6 11 10 10 5 2 17 27 25 25 24 26 29 17 3 4 12 13 12 8 5 5 8 11 11 10 8 9 9 8 9 10 13 12 5 3 9 10 7 8 8 5 7 9 8 7 9 12 12 12 15 17 16 17 19 21
7 7 12 10 6 9 12 11 10 12 16 15 11 13 19 19 15 14 11 4 7 13 7 5 14 17 20 23 16 14 14 6 6 12 11 9 6 6 10 8 8 18 20 20 22 12 3 8 11 11 10 4 3 6 10 11 10 8 10 12 12 12 14 16 20 14 6 8 16 7 7 10 8 6 8 10 12 13 13 17 19 19 24 25 22 20 20 21
7 8 7 4 4 11 16 15 13 15 16 11 6 11 19 21 19 16 10 7 9 13 11 12 19 21 23 23 16 15 17 13 13 15 13 14 14 12 10 4 1 6 9 10 10 3 3 5 4 6 8 2 2 3 5 8 7 6 10 14 14 18 20 20 21 15 11 18 20 9 9 12 6 6 10 14 18 17 14 18 21 22 26 28 25 23 22 24
13 16 9 4 3 13 18 17 15 14 13 11 8 10 16 21 21 15 10 13 16 15 15 19 24 25 25 24 20 19 25 26 21 17 16 16 13 11 10 6 3 4 5 6 4 0 2 3 1 5 5 1 1 4 5 5 6 5 9 13 16 20 20 18 15 11 11 19 18 12 17 16 6 9 12 13 15 13 14 20 22 24 28 29 27 26 25 27
25 33 30 13 3 9 15 14 15 14 11 11 11 11 15 20 22 16 6 7 14 17 19 22 23 21 20 23 24 23 25 22 17 19 23 21 19 16 10 7 9 8 5 5 5 2 3 2 2 6 5 4 1 5 6 6 4 1 10 16 18 16 13 12 11 11 14 18 14 11 15 12 5 8 8 9 12 14 17 22 24 28 31 30 28 27 27 27
31 35 37 21 6 9 14 12 12 14 12 11 11 14 16 18 20 18 8 1 4 9 13 17 19 15 14 21 24 20 19 18 20 26 29 27 27 22 17 21 26 20 11 8 6 4 6 6 3 5 7 4 2 5 8 6 3 6 14 17 17 13 10 9 11 15 18 15 10 11 13 6 4 6 7 7 11 13 18 23 27 30 31 28 26 26 26 26
Wind_Direction
236 234 231 229 228 229 230 229 225 223 223 220 220 222 223 225 224 221 219 211 206 206 206 204 204 204 204 204 204 207 209 211 212 213 215 216 217 218 220 217 216 215 213 211 207 203 205 210 210 212 219 228 261 260 306 336 328 335 91 104 194 182 190 184 184 201 175 287 243 197 184 176 188 189 184 188 201 212 196 195 201 201 204 203 200 197 183 182
236 236 232 228 228 229 229 229 228 224 223 221 220 222 222 224 223 220 217 209 205 205 204 202 201 201 200 198 199 201 203 206 208 211 213 215 216 218 220 219 218 218 217 216 215 215 219 225 221 218 216 217 257 241 294 335 354 40 107 116 223 197 217 207 201 214 202 334 272 209 198 191 200 183 176 185 195 190 190 203 212 209 209 208 205 200 188 185
236 237 233 229 229 230 228 227 230 227 224 221 219 220 221 222 223 218 214 209 205 203 202 200 198 196 194 193 193 193 195 197 204 209 211 212 213 214 218 219 218 220 221 223 226 228 232 235 232 226 210 194 240 217 286 336 354 75 100 134 237 216 258 275 279 271 276 299 296 224 211 207 212 188 183 191 182 187 202 207 209 213 211 210 209 198 189 188
236 237 234 229 228 230 227 225 228 229 226 223 218 218 220 219 216 214 213 210 204 201 200 198 195 193 191 190 188 188 186 188 211 213 210 210 210 208 209 212 213 215 219 219 221 226 229 226 222 213 195 183 207 200 256 338 349 170 138 190 234 214 276 311 340 334 318 295 277 237 205 217 213 192 188 177 154 222 227 214 213 219 210 206 208 197 190 191
235 236 233 229 228 229 228 225 225 226 225 223 221 217 216 216 213 212 212 209 204 200 199 197 195 192 191 190 188 188 179 170 232 218 211 209 208 207 203 201 198 193 194 198 196 201 208 208 205 191 176 165 164 171 245 306 350 218 209 207 292 45 284 319 341 337 335 317 267 224 200 220 203 196 198 184 181 228 229 223 222 225 216 209 210 198 193 195
236 235 233 230 228 228 229 226 223 225 223 219 220 217 213 215 217 215 212 208 204 201 200 197 194 192 192 192 191 189 183 166 242 210 210 208 205 204 201 198 195 188 182 182 179 177 180 186 186 174 160 135 159 161 191 230 329 259 242 4 26 16 297 320 332 326 326 311 256 230 230 218 192 205 209 200 213 226 233 236 228 224 220 216 214 202 198 199
237 235 234 231 228 227 228 227 224 225 226 220 216 216 213 215 219 219 213 208 205 202 201 199 196 196 194 193 193 193 197 200 124 183 203 206 207 201 199 200 200 202 198 194 188 181 177 178 175 167 153 124 169 170 183 213 283 257 234 353 345 334 320 330 331 322 320 295 267 255 239 211 196 209 212 215 224 225 237 254 233 223 217 214 213 209 208 208
238 237 237 233 229 229 227 227 226 223 224 223 217 215 214 213 217 219 212 207 206 204 203 200 198 198 195 193 189 190 204 208 212 280 196 199 206 204 203 203 203 209 208 211 210 197 186 180 178 169 155 149 180 173 178 202 256 238 210 337 327 330 336 341 335 323 318 295 275 244 230 218 206 207 222 228 228 223 228 253 242 220 212 211 212 212 213 213
238 238 238 235 231 230 227 226 227 222 220 220 217 215 214 213 215 215 210 206 205 205 204 200 198 196 194 194 189 190 208 208 208 242 196 193 201 206 208 205 202 207 208 214 220 214 203 191 187 182 178 175 174 174 171 181 229 208 194 331 324 334 346 342 332 332 329 295 262 220 230 230 210 212 250 242 236 230 228 239 246 219 211 211 212 214 215 216
239 238 238 236 231 231 228 223 225 223 218 219 218 215 213 212 213 211 208 206 205 205 203 199 196 192 193 194 188 196 212 207 207 213 181 186 195 203 208 209 204 202 200 202 209 215 212 205 198 190 184 164 164 175 170 176 210 198 280 318 303 312 334 342 323 316 316 290 245 213 222 227 198 183 246 247 240 234 230 232 237 221 214 214 214 216 217 220
241 239 238 237 233 232 228 222 223 223 219 219 218 216 214 213 212 210 207 206 204 204 203 199 194 193 195 196 191 199 208 203 205 202 167 172 190 199 206 211 212 208 204 201 204 214 215 216 206 191 185 172 166 170 184 200 217 231 309 303 293 307 319 332 323 304 296 286 244 212 206 222 168 181 235 239 233 231 227 226 230 222 217 216 216 217 218 221
241 240 239 237 234 233 229 223 222 223 221 218 217 214 213 213 213 211 207 205 205 204 203 199 196 197 197 198 202 205 203 198 200 197 171 161 178 192 202 209 214 215 214 210 211 216 214 216 209 196 186 170 157 148 207 208 200 258 341 300 314 329 315 305 310 281 215 257 234 186 224 264 184 225 236 236 236 235 225 223 226 224 220 218 219 219 219 222
241 240 240 238 236 234 230 224 221 222 221 223 223 214 210 212 211 212 209 205 205 203 202 200 198 199 194 196 208 208 203 198 198 197 184 170 172 182 189 194 201 207 215 216 213 210 205 208 207 195 172 160 156 127 186 183 170 116 47 85 336 346 301 284 294 240 190 205 193 155 234 266 233 236 236 234 235 231 223 223 224 225 224 220 220 220 222 222
241 240 240 238 237 235 230 225 222 221 221 223 223 213 209 211 207 209 210 205 204 202 199 197 196 195 195 199 207 206 203 196 199 200 195 182 174 178 178 178 183 189 197 206 206 197 186 190 196 186 168 165 165 138 110 115 137 134 64 62 357 262 271 279 150 171 173 205 185 158 238 263 254 245 235 228 230 225 223 225 225 226 226 223 222 222 224 224
241 241 240 238 237 235 230 226 222 221 221 219 217 211 206 209 208 206 208 205 202 200 195 192 192 189 193 205 207 204 202 196 197 199 199 192 179 178 177 177 179 182 184 188 192 184 173 177 181 172 157 160 155 131 78 22 47 96 186 231 248 218 274 305 252 179 178 217 179 163 237 257 267 262 241 230 230 228 226 227 227 227 227 226 225 225 227 228
243 241 239 238 236 235 231 225 222 221 220 218 216 212 206 208 210 206 206 204 199 196 192 189 189 186 187 204 204 201 199 195 189 188 194 195 187 179 178 181 182 180 180 179 184 182 172 169 168 157 140 146 147 117 76 36 338 349 206 193 205 207 265 315 276 194 178 163 186 191 230 253 270 273 244 229 229 226 226 228 229 229 229 228 228 229 230 230
245 241 239 238 235 234 231 224 223 221 219 217 214 214 208 205 206 204 201 199 196 192 191 189 187 186 191 197 192 193 194 190 182 179 183 189 190 182 178 178 176 173 170 170 177 175 168 164 162 160 136 130 142 124 125 210 231 311 4 204 225 201 195 263 286 215 167 150 205 215 222 239 254 265 252 241 233 224 224 230 232 230 230 230 230 232 232 232
248 243 240 237 235 232 230 225 220 220 218 214 210 210 209 201 196 195 191 188 186 185 189 189 185 184 203 201 193 190 191 187 177 175 176 181 186 182 176 171 167 162 153 152 163 160 159 159 146 144 126 117 144 157 192 208 190 189 187 203 232 220 214 242 266 249 155 156 211 208 223 249 259 267 267 270 253 228 229 233 236 236 234 232 231 233 234 235
249 245 240 236 234 229 228 223 218 219 215 210 207 206 206 194 187 186 182 178 176 179 184 182 182 186 238 201 192 186 187 182 172 171 173 173 178 178 172 165 161 156 145 140 161 158 149 136 123 172 172 167 179 187 195 179 163 179 190 197 211 226 235 251 269 279 193 176 232 221 225 246 253 262 261 257 247 236 239 239 241 242 239 236 234 234 236 238
248 244 239 233 231 227 225 221 217 217 211 207 202 197 193 180 177 178 172 174 177 178 180 181 184 193 257 183 181 176 174 175 171 168 170 171 171 169 162 156 153 151 148 141 162 165 157 153 183 191 180 179 189 189 174 163 160 164 175 201 209 225 269 290 300 306 297 183 253 236 230 253 252 258 264 252 234 232 237 237 241 242 240 239 237 237 239 242
245 241 238 231 226 224 223 218 216 214 209 209 198 191 186 173 174 169 160 171 183 180 175 179 183 195 179 173 177 169 156 157 168 167 168 171 167 160 156 154 147 149 157 129 125 152 167 187 193 180 172 170 176 168 143 144 143 149 164 188 215 202 266 285 292 307 308 186 266 267 233 262 260 264 271 247 202 228 233 231 240 243 243 243 241 241 242 245
243 239 235 229 222 219 220 215 215 212 209 213 199 190 189 180 182 178 164 167 185 185 175 174 181 192 177 174 177 168 152 143 162 169 167 168 167 161 156 158 151 147 142 125 116 134 181 213 187 164 154 148 158 164 155 156 145 142 147 149 228 246 283 280 297 321 323 185 261 316 267 260 263 264 264 243 218 241 246 239 245 249 248 248 247 246 245 245
242 236 231 226 218 214 216 213 212 211 209 215 202 190 192 188 185 178 167 155 175 185 174 170 178 178 165 167 170 166 158 151 160 168 169 167 167 163 158 160 151 142 149 158 155 157 190 223 175 156 145 142 159 175 168 174 166 159 139 144 196 276 18 252 305 321 303 236 254 318 316 271 266 269 267 249 235 245 253 250 252 253 253 256 256 254 250 248
237 229 225 221 213 210 212 209 209 212 211 214 206 194 193 195 189 174 158 112 140 176 174 174 175 171 167 164 167 168 163 161 161 165 169 167 160 158 158 155 144 142 166 173 168 170 184 182 158 149 148 153 159 180 181 184 192 196 164 147 152 133 299 258 313 313 311 341 316 341 328 285 256 260 266 259 239 243 250 248 249 249 251 257 259 257 254 251
228 222 219 214 209 206 206 206 207 210 210 213 208 196 194 198 189 173 157 70 123 161 173 176 172 175 175 168 171 171 154 155 164 164 167 166 158 153 148 150 148 151 169 160 159 186 226 182 158 147 160 165 162 186 190 184 190 222 205 154 143 148 338 329 331 343 7 345 310 360 317 277 280 266 256 261 250 244 246 241 243 246 246 250 253 255 255 253
220 215 212 207 204 201 199 201 205 207 209 213 210 195 193 195 181 171 161 70 195 162 161 171 170 179 179 171 169 163 142 145 166 164 164 166 162 154 143 144 139 143 158 144 139 197 217 163 155 152 162 163 174 195 192 176 164 215 203 152 143 149 14 339 353 25 31 288 295 35 230 269 308 280 256 267 271 260 252 242 244 248 247 244 248 254 255 253
215 209 205 202 199 194 193 196 202 203 205 212 210 193 192 190 175 171 160 21 207 161 152 166 169 176 177 172 166 161 145 150 157 165 166 163 163 157 150 150 129 141 152 131 167 211 135 143 151 157 158 163 190 195 183 164 147 234 198 154 158 168 192 275 43 77 228 283 299 231 192 272 287 262 266 308 285 278 272 259 252 251 250 246 245 249 252 252
211 204 200 197 194 192 192 194 198 199 201 208 204 188 188 185 174 171 165 242 183 134 149 159 155 167 170 169 168 158 139 146 148 174 170 160 160 157 150 161 146 150 164 152 182 197 138 167 177 165 167 189 190 160 153 155 149 242 179 149 164 157 153 161 76 72 277 325 288 265 133 268 265 266 306 339 252 263 266 262 252 247 248 247 246 246 248 248
206 199 195 192 190 191 193 194 195 196 200 204 195 182 183 180 172 170 199 210 148 113 154 151 145 158 159 160 165 144 140 146 142 167 168 158 157 156 142 156 141 138 171 163 160 172 156 189 182 164 174 194 164 138 153 157 159 176 122 99 103 99 96 99 80 48 4 303 257 241 184 251 268 261 266 282 244 243 256 265 253 249 250 249 248 247 247 247
198 194 191 187 186 189 192 194 196 195 196 198 187 171 169 170 167 180 215 179 117 122 146 145 149 154 152 144 144 150 143 135 134 150 162 154 144 135 121 141 136 128 171 141 123 177 357 177 176 168 187 177 145 145 164 164 148 115 97 84 78 57 49 54 48 59 17 274 260 219 182 207 281 261 212 219 224 208 225 253 257 257 258 255 253 252 252 252
192 190 187 184 185 186 187 191 196 195 193 190 176 160 157 161 166 204 196 145 106 145 136 139 151 152 156 147 143 162 141 119 145 149 158 154 138 127 123 138 134 109 146 171 173 325 24 107 169 215 188 154 117 119 164 163 145 115 97 118 117 18 24 19 351 58 219 247 268 266 152 157 244 257 224 238 248 220 216 233 248 251 253 255 256 256 256 257
187 186 184 184 186 185 186 190 191 191 190 179 166 158 154 163 213 192 177 141 144 168 147 143 152 155 162 155 147 158 136 136 160 158 159 159 151 151 147 159 157 128 169 187 172 1 39 172 226 217 183 161 136 112 127 153 155 143 142 144 140 141 126 218 234 174 237 240 210 173 144 188 246 250 249 257 268 258 236 232 243 250 254 260 264 262 258 258
183 183 182 185 186 185 187 189 187 188 185 171 162 158 160 195 197 148 128 157 152 154 151 151 158 162 162 157 147 145 133 146 165 163 160 151 141 159 160 166 160 142 162 163 141 141 186 284 241 125 183 174 154 146 159 170 179 176 168 165 165 149 165 208 205 208 252 253 208 158 157 263 276 265 234 238 247 251 249 250 254 259 265 269 273 271 267 264
180 180 181 184 186 186 188 188 186 184 177 166 161 160 174 196 183 121 130 165 129 136 152 150 154 158 155 148 151 150 129 145 166 158 152 148 150 173 192 188 178 128 106 143 160 168 162 249 210 174 183 174 162 171 168 140 166 185 164 144 171 168 175 194 195 213 243 261 255 174 182 223 226 259 234 231 256 265 266 267 267 268 269 271 274 275 274 271
178 180 180 182 185 187 187 187 186 181 172 167 167 176 178 178 141 141 145 139 127 133 138 138 146 151 142 138 158 166 134 153 169 156 157 167 171 179 181 188 183 145 130 160 176 156 151 228 238 219 161 163 165 177 150 122 152 193 152 152 206 193 153 143 194 208 196 281 258 203 229 220 205 276 273 255 271 273 268 269 270 270 271 273 274 274 276 276
176 178 179 180 184 186 187 186 182 178 173 170 182 195 178 153 145 155 148 149 146 137 133 141 154 151 138 142 164 172 119 149 163 158 172 177 178 185 182 180 181 170 159 158 139 139 150 229 280 55 117 166 168 167 160 156 159 139 170 199 221 170 130 113 234 340 75 247 258 200 245 284 317 285 289 314 303 288 274 268 267 270 275 280 279 277 277 278
174 177 178 179 183 186 187 185 179 175 174 175 201 192 159 105 160 152 151 155 146 141 141 147 166 159 143 147 170 170 143 140 163 167 172 175 191 195 188 185 181 180 172 145 112 183 149 117 303 98 122 183 157 150 164 172 151 143 193 197 142 117 120 105 263 322 92 240 276 229 242 274 278 266 308 351 319 297 289 277 274 279 280 278 280 284 284 281
173 174 175 178 183 184 185 185 180 175 173 181 199 188 125 124 164 148 148 149 141 144 151 150 163 171 160 159 170 173 160 154 173 176 169 178 209 192 183 188 178 174 176 144 104 197 135 102 304 290 135 147 78 121 159 215 151 161 194 182 148 182 211 143 199 226 201 240 283 296 283 258 217 234 314 324 294 291 292 288 291 294 291 289 293 298 298 292
170 170 173 179 181 182 183 182 179 176 178 189 192 196 144 127 152 154 148 144 143 150 156 158 162 172 178 171 165 171 172 168 172 173 174 185 222 190 176 173 160 169 174 156 126 170 123 111 244 275 151 132 60 129 182 205 24 64 129 192 193 153 175 175 178 173 176 226 272 311 315 267 220 203 195 246 267 275 277 278 284 296 302 305 306 308 307 300
165 163 170 177 179 181 179 176 174 179 194 191 183 184 147 132 150 162 155 148 150 160 164 167 168 167 173 170 160 168 176 167 170 176 181 176 180 202 181 168 152 164 164 154 144 150 118 107 155 240 31 131 149 197 184 171 159 128 150 194 213 187 160 182 190 140 132 188 232 291 287 268 245 192 187 206 228 243 259 271 270 288 301 308 313 318 315 304
163 163 164 174 178 176 172 171 173 182 193 184 181 164 150 145 142 161 161 155 152 150 158 163 169 168 163 160 163 174 167 156 172 177 169 172 164 205 188 164 146 149 149 147 156 160 135 108 136 146 130 173 218 242 178 170 177 171 177 196 193 189 180 181 233 257 97 199 198 180 273 271 234 193 205 210 216 232 252 282 274 283 298 310 323 336 333 318
159 168 165 172 176 170 166 168 173 173 180 173 162 135 141 142 143 160 166 162 155 118 139 155 157 156 163 164 164 169 163 157 177 177 154 174 169 163 168 151 144 150 149 146 170 173 137 101 112 145 194 201 246 303 221 214 167 142 188 201 178 190 186 172 220 246 241 244 164 127 276 276 200 177 203 223 234 240 247 257 270 285 301 315 332 350 351 342
144 144 162 172 174 168 166 179 171 167 175 144 136 132 143 143 152 162 162 165 165 128 141 155 154 158 172 171 157 160 160 155 174 169 116 153 168 153 151 146 146 154 151 145 167 174 146 97 96 53 309 298 325 354 343 339 87 145 251 183 153 198 195 175 193 177 198 231 145 129 263 261 206 207 221 234 248 254 258 259 263 280 304 324 342 357 357 352
128 132 156 170 175 171 170 187 167 161 142 137 135 138 142 144 159 161 162 170 173 157 156 164 168 168 169 165 162 165 163 152 164 159 111 141 164 152 152 152 155 163 172 174 172 171 170 123 110 103 30 355 346 334 280 298 96 193 221 163 163 159 136 147 154 124 239 214 158 196 251 242 291 318 308 293 291 284 276 272 267 275 302 332 349 358 353 347
130 135 155 167 173 175 180 183 160 150 139 139 138 140 135 140 168 167 164 167 168 158 157 159 156 146 137 147 152 163 164 143 144 153 111 118 134 153 159 162 166 172 178 172 163 161 171 171 148 141 144 184 202 219 219 190 145 220 198 184 193 175 165 180 163 188 235 207 170 211 244 275 2 337 337 330 324 305 274 252 257 269 297 330 342 349 347 341
140 147 158 165 171 177 187 182 163 151 145 143 139 149 143 139 167 169 162 156 131 131 123 119 133 123 127 143 140 162 174 132 129 153 145 146 148 183 172 169 173 177 170 162 159 155 143 182 182 182 185 188 189 196 166 130 150 202 198 185 196 194 188 188 188 211 217 173 198 226 235 265 304 315 323 314 308 299 282 272 268 266 286 313 329 337 339 337
158 166 164 161 169 177 183 181 171 160 154 152 149 157 153 146 151 163 163 165 148 135 103 92 144 143 155 156 151 171 172 118 124 154 152 151 122 95 170 174 178 176 165 161 162 154 99 193 196 201 200 184 157 164 150 143 173 192 174 179 196 194 188 195 214 217 154 135 239 231 207 233 251 264 288 297 298 286 284 291 293 290 292 303 318 330 331 329
159 163 171 158 150 173 172 169 174 166 157 156 157 157 155 154 154 157 161 157 153 152 129 130 165 168 167 163 159 167 162 132 147 161 156 157 131 117 158 176 186 174 166 166 168 160 152 196 197 195 193 173 108 162 162 157 174 175 169 187 196 195 200 208 221 221 161 218 246 220 174 221 222 208 239 253 255 256 263 274 284 291 293 299 310 317 316 316
126 133 160 141 130 162 157 151 162 169 160 147 144 158 157 156 158 161 157 141 161 174 165 165 177 175 170 169 163 160 167 171 178 177 168 160 155 149 152 157 201 168 156 161 172 163 154 185 186 166 175 164 93 156 154 143 152 172 189 197 196 203 210 213 222 225 215 238 251 251 252 254 212 189 227 234 243 258 270 273 278 284 287 292 299 300 300 302
152 153 147 62 112 159 152 152 162 167 161 148 149 165 162 160 163 163 160 162 170 180 178 178 180 175 171 172 170 177 187 184 178 174 160 149 154 159 158 162 152 122 118 146 170 338 148 176 52 110 145 261 94 102 80 107 143 184 212 217 212 212 217 220 226 229 231 247 255 261 272 271 215 194 233 249 261 277 282 276 277 279 281 286 290 290 293 295
163 168 161 138 106 159 153 157 163 161 166 169 163 162 165 169 167 158 152 180 176 179 186 183 176 171 170 175 184 194 192 179 160 154 154 154 159 163 163 154 141 131 128 153 162 143 136 159 53 100 146 247 234 114 99 77 65 261 243 234 221 215 216 219 220 214 222 241 249 249 260 261 202 188 217 242 259 261 262 266 270 273 275 279 283 287 292 294
156 161 161 148 125 160 158 156 164 167 172 172 162 163 169 172 167 157 147 173 173 178 187 174 161 158 171 187 195 191 172 153 142 150 158 161 161 160 159 158 158 157 158 159 159 147 139 141 126 137 166 235 281 132 126 92 55 268 251 232 215 212 211 214 228 224 221 228 232 236 246 238 157 174 194 217 234 238 248 256 262 267 271 274 279 285 290 292